Weather History for MROC - November, 2012

Change the Weather History Date:

Saturday, November 17, 2012

  Actual Average Record
Temperature  
Mean Temperature 72 °F -  
Max Temperature 78 °F 79 °F 86 °F (1998)
Min Temperature 67 °F 64 °F 62 °F (1996)
Cooling Degree Days 8    
Growing Degree Days 22 (Base 50)    
Moisture  
Dew Point 62 °F    
Average Humidity 70    
Maximum Humidity 83    
Minimum Humidity 51    
Precipitation  
Precipitation 0.00 in 0.10 in - ()
Sea Level Pressure  
Sea Level Pressure 30.00 in    
Wind  
Wind Speed 7 mph ()    
Max Wind Speed 66 mph    
Max Gust Speed -    
Visibility 7.5 miles    
Events Rain    
Averages and records for this station are not official NWS values.
T = Trace of Precipitation, MM = Missing Value Source: Averaged Metar Reports

Daily Weather History Graph

Daily Weather History Graph

Search for Another Location

Airport or City:

Trip Planner

Search our weather history database for the weather conditions in past years. The results will help you decide how hot, cold, wet, or windy it might be!

Date:

Astronomy

Nov. 17, 2012 Rise Set
Actual Time 5:32 AM CST 5:11 PM CST
Civil Twilight 5:10 AM CST 5:33 PM CST
Nautical Twilight 4:44 AM CST 5:59 PM CST
Astronomical Twilight 4:18 AM CST 6:24 PM CST
Moon 9:15 AM CST (11/17) 9:16 PM CST (11/17)
Length of Visible Light 12h 23m
Length of Day
11h 39m
Waxing Crescent, 20% of the Moon is Illuminated
Nov 17
Waxing Crescent
Nov 20
First Quarter
Nov 28
Full
Dec 6
Last Quarter
Dec 13
New

Hourly Weather History & Observations

Time (CST) Temp. Dew Point Humidity Pressure Visibility Wind Dir Wind Speed Gust Speed Precip Events Conditions
12:00 AM 69 °F 62 °F 74% 29.89 in 12 mi East 5.8 mph - -   Scattered Clouds
12:00 AM 69.8 °F 62.6 °F 78% 30.02 in 6.2 mi East 5.8 mph - N/A   Scattered Clouds
1:00 AM 69.8 °F 62.6 °F 78% 30.01 in 6.2 mi ESE 6.9 mph - N/A   Scattered Clouds
2:00 AM 69.8 °F 62.6 °F 78% 30.00 in 6.2 mi ESE 4.6 mph - N/A   Scattered Clouds
3:00 AM 69 °F 63 °F 76% 29.83 in 12 mi East 5.8 mph - - Rain Light Rain
3:00 AM 68.0 °F 62.6 °F 83% 29.99 in 6.2 mi East 6.9 mph - N/A Rain Light Rain
4:00 AM 68.0 °F 62.6 °F 83% 30.00 in 6.2 mi East 4.6 mph - N/A   Mostly Cloudy
5:00 AM 69.8 °F 62.6 °F 78% 30.01 in 6.2 mi East 3.5 mph - N/A   Scattered Clouds
6:00 AM 69.8 °F 62.6 °F 78% 30.03 in 6.2 mi East 5.8 mph - N/A   Mostly Cloudy
7:00 AM 69.8 °F 62.6 °F 78% 30.05 in 6.2 mi East 4.6 mph - N/A   Scattered Clouds
8:00 AM 75.2 °F 64.4 °F 69% 30.06 in 6.2 mi East 9.2 mph - N/A   Scattered Clouds
9:00 AM 78 °F 64 °F 53% 29.87 in 12 mi ESE 6.9 mph - -   Scattered Clouds
9:00 AM 77.0 °F 64.4 °F 65% 30.06 in 6.2 mi ESE 6.9 mph - N/A   Scattered Clouds
10:00 AM 77.0 °F 64.4 °F 65% 30.06 in 6.2 mi SE 6.9 mph - N/A   Scattered Clouds
11:00 AM 78.8 °F 60.8 °F 54% 30.05 in 6.2 mi SW 13.8 mph - N/A   Scattered Clouds
12:00 PM 78 °F 63 °F 51% 29.83 in 12 mi WSW 5.8 mph - -   Mostly Cloudy
12:00 PM 78.8 °F 62.6 °F 57% 30.03 in 6.2 mi WSW 5.8 mph - N/A   Mostly Cloudy
1:00 PM 77.0 °F 62.6 °F 61% 30.02 in 6.2 mi SSW 5.8 mph - N/A Rain Light Rain
2:00 PM 77.0 °F 62.6 °F 61% 30.00 in 6.2 mi SSW 6.9 mph - N/A   Mostly Cloudy
2:10 PM 75.2 °F 62.6 °F 65% 30.00 in 6.2 mi East 8.1 mph - N/A   Mostly Cloudy
3:00 PM 72 °F 64 °F 71% 29.83 in 12 mi SSE 6.9 mph - - Rain Light Rain
3:00 PM 71.6 °F 64.4 °F 78% 30.01 in 6.2 mi SSE 6.9 mph - N/A Rain Light Rain
4:00 PM 73.4 °F 62.6 °F 69% 30.00 in 6.2 mi East 5.8 mph - N/A   Mostly Cloudy
5:00 PM 69.8 °F 62.6 °F 78% 30.02 in 6.2 mi East 8.1 mph - N/A   Mostly Cloudy
6:00 PM 72 °F 60 °F 56% 29.92 in 12 mi NNE 5.8 mph - -  
6:00 PM 71.6 °F 59.0 °F 64% 30.03 in 6.2 mi NNE 65.6 mph - N/A   Scattered Clouds
7:00 PM 69.8 °F 60.8 °F 73% 30.06 in 6.2 mi East 6.9 mph - N/A   Scattered Clouds
8:00 PM 69.8 °F 60.8 °F 73% 30.08 in 6.2 mi East 8.1 mph - N/A   Scattered Clouds
9:00 PM 70 °F 61 °F 65% 29.91 in 12 mi East 9.2 mph - -   Scattered Clouds
9:00 PM 69.8 °F 60.8 °F 73% 30.09 in 6.2 mi East 9.2 mph - N/A   Scattered Clouds
10:00 PM 68.0 °F 60.8 °F 78% 30.08 in 6.2 mi NE 8.1 mph - N/A   Partly Cloudy
11:00 PM 69.8 °F 60.8 °F 73% 30.07 in 6.2 mi East 8.1 mph - N/A   Scattered Clouds